Morgantown, WV

10:45 AM EDT on June 28, 2017 (GMT -0400)
Morgantown Municipal-Hart

Weather History for KMGW - January, 2008

Change the Weather History Date:

Tuesday, January 1, 2008

  Actual Average Record
Temperature  
Mean Temperature 34 °F 32 °F  
Max Temperature 46 °F 39 °F 73 °F (1952)
Min Temperature 21 °F 24 °F -4 °F (1968)
Degree Days  
Heating Degree Days 32 33  
Month to date heating degree days 33  
Since 1 July heating degree days 2017  
Cooling Degree Days 0 0  
Month to date cooling degree days 0  
Year to date cooling degree days 0  
Moisture  
Dew Point 24 °F    
Average Humidity 71    
Maximum Humidity 80    
Minimum Humidity 37    
Precipitation  
Precipitation 0.04 in 0.09 in 0.89 in (2003)
Month to date precipitation 0.09  
Year to date precipitation 0.09  
Sea Level Pressure  
Sea Level Pressure 29.93 in    
Wind  
Wind Speed 9 mph (SW)    
Max Wind Speed 17 mph    
Max Gust Speed 41 mph    
Visibility 6 miles    
Events Rain , Snow    
T = Trace of Precipitation, MM = Missing Value Source: NWS Daily Summary

Daily Weather History Graph

Daily Weather History Graph

Search for Another Location

Airport or City:

Trip Planner

Search our weather history database for the weather conditions in past years. The results will help you decide how hot, cold, wet, or windy it might be!

Date:

Astronomy

Jan. 01, 2008 Rise Set
Actual Time 7:40 AM EST 5:05 PM EST
Civil Twilight 7:10 AM EST 5:36 PM EST
Nautical Twilight 6:36 AM EST 6:09 PM EST
Astronomical Twilight 6:03 AM EST 6:42 PM EST
Moon 1:28 AM EST (1/1) 12:18 PM EST (1/1)
Length of Visible Light 10h 25m
Length of Day
9h 25m
Last Quarter, 37% of the Moon is Illuminated
Jan 1
Last Quarter
Jan 8
New
Jan 15
First Quarter
Jan 22
Full
Jan 30
Last Quarter

Hourly Weather History & Observations

Time (EST) Temp. Windchill Dew Point Humidity Pressure Visibility Wind Dir Wind Speed Gust Speed Precip Events Conditions
12:53 AM 46.9 °F - 21.9 °F 37% 29.82 in 10.0 mi Variable 5.8 mph - N/A   Overcast
1:53 AM 45.0 °F 39.3 °F 30.0 °F 56% 29.81 in 10.0 mi SW 11.5 mph 27.6 mph 0.00 in Rain Light Rain
2:31 AM 42.8 °F 40.1 °F 33.8 °F 70% 29.79 in 10.0 mi Variable 4.6 mph - 0.01 in Rain Light Rain
2:53 AM 42.1 °F 39.2 °F 35.1 °F 76% 29.80 in 10.0 mi Variable 4.6 mph - 0.02 in Rain Light Rain
3:14 AM 42.8 °F - 35.6 °F 76% 29.77 in 10.0 mi Calm Calm - 0.00 in   Overcast
3:53 AM 44.1 °F 37.7 °F 34.0 °F 68% 29.78 in 10.0 mi SW 12.7 mph 21.9 mph 0.00 in   Overcast
4:19 AM 42.8 °F 35.1 °F 33.8 °F 70% 29.80 in 8.0 mi West 16.1 mph 41.4 mph 0.02 in Rain Light Rain
4:32 AM 39.2 °F 33.6 °F 32.0 °F 75% 29.78 in 10.0 mi SSW 8.1 mph 18.4 mph 0.02 in   Overcast
4:53 AM 39.9 °F 33.4 °F 32.0 °F 73% 29.80 in 10.0 mi SW 10.4 mph 16.1 mph 0.02 in   Overcast
5:53 AM 39.9 °F 32.9 °F 28.0 °F 63% 29.83 in 10.0 mi SW 11.5 mph 21.9 mph N/A   Overcast
6:53 AM 37.9 °F 29.2 °F 24.1 °F 57% 29.86 in 10.0 mi WSW 15.0 mph 26.5 mph N/A   Mostly Cloudy
7:53 AM 36.0 °F 26.0 °F 21.0 °F 55% 29.89 in 10.0 mi SW 17.3 mph 26.5 mph N/A   Overcast
8:53 AM 35.1 °F 28.6 °F 21.0 °F 57% 29.91 in 10.0 mi SW 8.1 mph 20.7 mph N/A   Overcast
9:53 AM 35.1 °F 27.4 °F 19.9 °F 54% 29.91 in 10.0 mi SW 10.4 mph 25.3 mph N/A   Overcast
10:53 AM 34.0 °F 24.6 °F 21.0 °F 59% 29.93 in 10.0 mi SW 13.8 mph 25.3 mph N/A   Overcast
11:53 AM 33.1 °F 26.1 °F 24.1 °F 70% 29.91 in 3.0 mi WSW 8.1 mph 23.0 mph 0.00 in Snow Light Snow
12:26 PM 32.0 °F 24.8 °F 26.6 °F 80% 29.89 in 2.0 mi WSW 8.1 mph 21.9 mph 0.00 in Snow Light Snow
12:53 PM 32.0 °F 22.5 °F 25.0 °F 75% 29.92 in 1.5 mi SW 12.7 mph 27.6 mph 0.00 in Snow Light Snow
1:11 PM 32.0 °F 23.6 °F 24.8 °F 75% 29.90 in 2.5 mi WSW 10.4 mph 21.9 mph 0.00 in Snow Light Snow
1:32 PM 32.0 °F 24.2 °F 24.8 °F 75% 29.91 in 3.0 mi WSW 9.2 mph 18.4 mph 0.00 in Snow Light Snow
1:53 PM 32.0 °F 25.6 °F 25.0 °F 75% 29.94 in 3.0 mi SW 6.9 mph - 0.00 in Snow Light Snow
2:23 PM 30.2 °F 24.3 °F 24.8 °F 80% 29.92 in 2.0 mi Variable 5.8 mph - 0.00 in Snow Light Snow
2:39 PM 30.2 °F 22.6 °F 24.8 °F 80% 29.92 in 2.5 mi SW 8.1 mph - 0.00 in Snow Light Snow
2:49 PM 30.2 °F 21.3 °F 24.8 °F 80% 29.93 in 1.2 mi WSW 10.4 mph - 0.00 in Snow Light Snow
2:53 PM 30.9 °F 23.5 °F 25.0 °F 79% 29.95 in 1.0 mi WSW 8.1 mph - 0.00 in Snow Light Snow
3:38 PM 30.2 °F 20.8 °F 24.8 °F 80% 29.93 in 2.5 mi SW 11.5 mph 19.6 mph 0.00 in Snow Light Snow
3:53 PM 30.9 °F 22.8 °F 25.0 °F 79% 29.97 in 4.0 mi SW 9.2 mph - 0.00 in Snow Light Snow
4:46 PM 30.2 °F 23.4 °F 24.8 °F 80% 29.96 in 2.0 mi Variable 6.9 mph - 0.00 in Snow Light Snow
4:53 PM 30.0 °F 20.0 °F 24.1 °F 79% 30.00 in 1.8 mi SW 12.7 mph 18.4 mph 0.00 in Snow Light Snow
5:14 PM 30.2 °F 24.3 °F 24.8 °F 80% 29.98 in 2.5 mi WSW 5.8 mph - 0.00 in Snow Light Snow
5:22 PM 30.2 °F 23.4 °F 23.0 °F 75% 29.98 in 4.0 mi WSW 6.9 mph - 0.00 in Snow Light Snow
5:53 PM 30.0 °F 22.4 °F 19.9 °F 66% 30.02 in 9.0 mi SW 8.1 mph - 0.00 in Snow Light Snow
6:53 PM 28.0 °F 21.7 °F 19.0 °F 69% 30.04 in 8.0 mi Variable 5.8 mph 17.3 mph 0.00 in Snow Light Snow
7:53 PM 27.0 °F 17.3 °F 18.0 °F 69% 30.06 in 4.0 mi WSW 10.4 mph 16.1 mph 0.00 in Snow Light Snow
8:48 PM 24.8 °F 14.0 °F 17.6 °F 74% 30.02 in 2.5 mi WSW 11.5 mph 16.1 mph 0.00 in Snow Light Snow
8:53 PM 25.0 °F 15.5 °F 18.0 °F 75% 30.06 in 2.5 mi SW 9.2 mph 18.4 mph 0.00 in Snow Light Snow
9:06 PM 24.8 °F 15.3 °F 17.6 °F 74% 30.02 in 4.0 mi WSW 9.2 mph 19.6 mph 0.00 in Snow Light Snow
9:53 PM 25.0 °F 14.8 °F 15.1 °F 66% 30.06 in 8.0 mi WSW 10.4 mph 20.7 mph 0.00 in Snow Light Snow
10:53 PM 24.1 °F 17.0 °F 15.1 °F 69% 30.06 in 9.0 mi WSW 5.8 mph 23.0 mph 0.00 in Snow Light Snow
11:39 PM 21.2 °F 14.9 °F 15.8 °F 80% 30.01 in 2.0 mi Variable 4.6 mph - 0.00 in Snow Light Snow
11:46 PM 21.2 °F 13.6 °F 15.8 °F 80% 30.01 in 1.5 mi WSW 5.8 mph - 0.00 in Snow Light Snow
11:53 PM 21.9 °F 11.0 °F 15.1 °F 75% 30.06 in 1.8 mi WSW 10.4 mph 19.6 mph 0.00 in Snow Light Snow
11:59 PM 21.2 °F 10.9 °F 15.8 °F 80% 30.01 in 2.0 mi WSW 9.2 mph 18.4 mph 0.00 in Snow Light Snow